Year,Month,Day,Hour,Minute,Value (Times are PST for temperature in C)
2015,08,19,00,01,16.90
2015,08,19,00,02,16.90
2015,08,19,00,03,16.90
2015,08,19,00,04,16.80
2015,08,19,00,06,16.70
2015,08,19,00,07,16.70
2015,08,19,00,09,16.60
2015,08,19,00,11,16.40
2015,08,19,00,12,16.40
2015,08,19,00,13,16.40
2015,08,19,00,14,16.30
2015,08,19,00,16,16.20
2015,08,19,00,17,16.10
2015,08,19,00,18,16.10
2015,08,19,00,19,15.90
2015,08,19,00,21,15.80
2015,08,19,00,22,15.80
2015,08,19,00,23,15.70
2015,08,19,00,24,15.60
2015,08,19,00,26,15.50
2015,08,19,00,27,15.40
2015,08,19,00,28,15.40
2015,08,19,00,29,15.30
2015,08,19,00,31,15.30
2015,08,19,00,32,15.20
2015,08,19,00,33,15.20
2015,08,19,00,34,15.20
2015,08,19,00,36,15.10
2015,08,19,00,37,15.10
2015,08,19,00,38,15.00
2015,08,19,00,39,15.00
2015,08,19,00,41,14.90
2015,08,19,00,42,14.90
2015,08,19,00,43,14.90
2015,08,19,00,44,14.90
2015,08,19,00,46,14.80
2015,08,19,00,47,14.80
2015,08,19,00,48,14.80
2015,08,19,00,49,14.80
2015,08,19,00,51,14.80
2015,08,19,00,52,14.80
2015,08,19,00,53,14.80
2015,08,19,00,54,14.80
2015,08,19,00,56,14.70
2015,08,19,00,57,14.70
2015,08,19,00,58,14.70
2015,08,19,00,59,14.70
2015,08,19,01,01,14.60
2015,08,19,01,02,14.60
2015,08,19,01,03,14.60
2015,08,19,01,04,14.60
2015,08,19,01,06,14.50
2015,08,19,01,07,14.50
2015,08,19,01,08,14.50
2015,08,19,01,09,14.50
2015,08,19,01,10,14.50
2015,08,19,01,11,14.50
2015,08,19,01,12,14.50
2015,08,19,01,13,14.40
2015,08,19,01,14,14.40
2015,08,19,01,15,14.40
2015,08,19,01,16,14.40
2015,08,19,01,17,14.40
2015,08,19,01,18,14.40
2015,08,19,01,19,14.40
2015,08,19,01,20,14.40
2015,08,19,01,21,14.40
2015,08,19,01,22,14.40
2015,08,19,01,23,14.30
2015,08,19,01,24,14.30
2015,08,19,01,25,14.30
2015,08,19,01,26,14.30
2015,08,19,01,27,14.30
2015,08,19,01,28,14.30
2015,08,19,01,29,14.30
2015,08,19,01,30,14.30
2015,08,19,01,31,14.30
2015,08,19,01,32,14.30
2015,08,19,01,33,14.30
2015,08,19,01,34,14.30
2015,08,19,01,35,14.20
2015,08,19,01,36,14.20
2015,08,19,01,37,14.20
2015,08,19,01,38,14.20
2015,08,19,01,39,14.20
2015,08,19,01,40,14.20
2015,08,19,01,41,14.20
2015,08,19,01,42,14.20
2015,08,19,01,43,14.20
2015,08,19,01,44,14.20
2015,08,19,01,45,14.20
2015,08,19,01,46,14.20
2015,08,19,01,47,14.20
2015,08,19,01,48,14.20
2015,08,19,01,49,14.20
2015,08,19,01,50,14.20
2015,08,19,01,51,14.20
2015,08,19,01,53,14.20
2015,08,19,01,54,14.20
2015,08,19,01,56,14.20
2015,08,19,01,57,14.20
2015,08,19,01,58,14.20
2015,08,19,01,59,14.20
2015,08,19,02,01,14.20
2015,08,19,02,02,14.20
2015,08,19,02,03,14.20
2015,08,19,02,04,14.20
2015,08,19,02,06,14.20
2015,08,19,02,08,14.20
2015,08,19,02,09,14.20
2015,08,19,02,11,14.20
2015,08,19,02,12,14.20
2015,08,19,02,13,14.20
2015,08,19,02,14,14.30
2015,08,19,02,16,14.30
2015,08,19,02,17,14.30
2015,08,19,02,18,14.30
2015,08,19,02,19,14.30
2015,08,19,02,21,14.30
2015,08,19,02,22,14.30
2015,08,19,02,23,14.40
2015,08,19,02,24,14.40
2015,08,19,02,26,14.40
2015,08,19,02,27,14.40
2015,08,19,02,28,14.40
2015,08,19,02,29,14.50
2015,08,19,02,31,14.50
2015,08,19,02,32,14.50
2015,08,19,02,33,14.50
2015,08,19,02,34,14.50
2015,08,19,02,36,14.50
2015,08,19,02,37,14.50
2015,08,19,02,38,14.50
2015,08,19,02,39,14.50
2015,08,19,02,41,14.50
2015,08,19,02,42,14.50
2015,08,19,02,43,14.50
2015,08,19,02,44,14.50
2015,08,19,02,46,14.50
2015,08,19,02,47,14.50
2015,08,19,02,48,14.50
2015,08,19,02,49,14.40
2015,08,19,02,51,14.40
2015,08,19,02,52,14.40
2015,08,19,02,53,14.40
2015,08,19,02,54,14.40
2015,08,19,02,56,14.40
2015,08,19,02,57,14.40
2015,08,19,02,58,14.40
2015,08,19,02,59,14.40
2015,08,19,03,01,14.40
2015,08,19,03,02,14.30
2015,08,19,03,03,14.30
2015,08,19,03,04,14.40
2015,08,19,03,06,14.40
2015,08,19,03,07,14.40
2015,08,19,03,08,14.30
2015,08,19,03,09,14.30
2015,08,19,03,11,14.30
2015,08,19,03,12,14.30
2015,08,19,03,13,14.30
2015,08,19,03,14,14.30
2015,08,19,03,16,14.30
2015,08,19,03,17,14.30
2015,08,19,03,18,14.30
2015,08,19,03,19,14.30
2015,08,19,03,21,14.30
2015,08,19,03,22,14.40
2015,08,19,03,23,14.40
2015,08,19,03,24,14.40
2015,08,19,03,26,14.40
2015,08,19,03,27,14.40
2015,08,19,03,28,14.40
2015,08,19,03,29,14.40
2015,08,19,03,31,14.50
2015,08,19,03,32,14.50
2015,08,19,03,33,14.50
2015,08,19,03,34,14.50
2015,08,19,03,36,14.50
2015,08,19,03,37,14.60
2015,08,19,03,38,14.60
2015,08,19,03,39,14.60
2015,08,19,03,41,14.70
2015,08,19,03,42,14.70
2015,08,19,03,43,14.70
2015,08,19,03,44,14.80
2015,08,19,03,46,14.80
2015,08,19,03,47,14.90
2015,08,19,03,48,14.90
2015,08,19,03,49,15.00
2015,08,19,03,51,15.10
2015,08,19,03,52,15.10
2015,08,19,03,53,15.20
2015,08,19,03,54,15.20
2015,08,19,03,55,15.30
2015,08,19,03,56,15.30
2015,08,19,03,57,15.30
2015,08,19,03,58,15.30
2015,08,19,03,59,15.40
2015,08,19,04,00,15.50
2015,08,19,04,01,15.60
2015,08,19,04,02,15.70
2015,08,19,04,03,15.80
2015,08,19,04,04,15.80
2015,08,19,04,05,15.80
2015,08,19,04,06,15.90
2015,08,19,04,07,15.90
2015,08,19,04,08,16.10
2015,08,19,04,09,16.10
2015,08,19,04,10,16.10
2015,08,19,04,11,16.10
2015,08,19,04,12,16.10
2015,08,19,04,13,16.20
2015,08,19,04,14,16.20
2015,08,19,04,15,16.20
2015,08,19,04,16,16.20
2015,08,19,04,17,16.20
2015,08,19,04,18,16.20
2015,08,19,04,19,16.20
2015,08,19,04,20,16.20
2015,08,19,04,21,16.10
2015,08,19,04,22,16.10
2015,08,19,04,23,16.10
2015,08,19,04,24,16.10
2015,08,19,04,25,16.10
2015,08,19,04,26,16.10
2015,08,19,04,27,16.10
2015,08,19,04,28,16.10
2015,08,19,04,29,16.10
2015,08,19,04,30,15.90
2015,08,19,04,31,15.90
2015,08,19,04,32,15.90
2015,08,19,04,33,15.90
2015,08,19,04,34,15.90
2015,08,19,04,35,15.90
2015,08,19,04,36,15.90
2015,08,19,04,37,15.80
2015,08,19,04,39,15.80
2015,08,19,04,41,15.80
2015,08,19,04,42,15.80
2015,08,19,04,43,15.80
2015,08,19,04,44,15.80
2015,08,19,04,46,15.80
2015,08,19,04,47,15.70
2015,08,19,04,48,15.70
2015,08,19,04,49,15.70
2015,08,19,04,51,15.70
2015,08,19,04,52,15.60
2015,08,19,04,53,15.60
2015,08,19,04,54,15.60
2015,08,19,04,56,15.60
2015,08,19,04,57,15.60
2015,08,19,04,58,15.60
2015,08,19,04,59,15.60
2015,08,19,05,01,15.60
2015,08,19,05,02,15.60
2015,08,19,05,03,15.60
2015,08,19,05,04,15.60
2015,08,19,05,06,15.60
2015,08,19,05,07,15.60
2015,08,19,05,08,15.60
2015,08,19,05,09,15.50
2015,08,19,05,11,15.50
2015,08,19,05,12,15.50
2015,08,19,05,13,15.40
2015,08,19,05,14,15.40
2015,08,19,05,16,15.40
2015,08,19,05,17,15.30
2015,08,19,05,18,15.30
2015,08,19,05,19,15.30
2015,08,19,05,21,15.30
2015,08,19,05,22,15.30
2015,08,19,05,23,15.30
2015,08,19,05,24,15.30
2015,08,19,05,26,15.20
2015,08,19,05,27,15.20
2015,08,19,05,28,15.10
2015,08,19,05,29,15.10
2015,08,19,05,31,14.90
2015,08,19,05,32,14.90
2015,08,19,05,33,14.80
2015,08,19,05,34,14.80
2015,08,19,05,36,14.80
2015,08,19,05,37,14.70
2015,08,19,05,38,14.70
2015,08,19,05,39,14.60
2015,08,19,05,41,14.60
2015,08,19,05,42,14.50
2015,08,19,05,43,14.50
2015,08,19,05,44,14.40
2015,08,19,05,46,14.40
2015,08,19,05,47,14.30
2015,08,19,05,48,14.30
2015,08,19,05,49,14.20
2015,08,19,05,51,14.20
2015,08,19,05,52,14.20
2015,08,19,05,53,14.20
2015,08,19,05,54,14.20
2015,08,19,05,56,14.10
2015,08,19,05,57,14.10
2015,08,19,05,58,14.10
2015,08,19,05,59,14.10
2015,08,19,06,01,14.00
2015,08,19,06,02,14.00
2015,08,19,06,03,14.00
2015,08,19,06,04,13.90
2015,08,19,06,06,13.90
2015,08,19,06,07,13.90
2015,08,19,06,08,13.80
2015,08,19,06,09,13.80
2015,08,19,06,11,13.80
2015,08,19,06,12,13.80
2015,08,19,06,13,13.80
2015,08,19,06,14,13.70
2015,08,19,06,16,13.70
2015,08,19,06,17,13.70
2015,08,19,06,18,13.70
2015,08,19,06,19,13.70
2015,08,19,06,21,13.70
2015,08,19,06,22,13.70
2015,08,19,06,23,13.70
2015,08,19,06,24,13.70
2015,08,19,06,26,13.70
2015,08,19,06,27,13.70
2015,08,19,06,28,13.70
2015,08,19,06,29,13.70
2015,08,19,06,31,13.70
2015,08,19,06,32,13.70
2015,08,19,06,33,13.70
2015,08,19,06,34,13.70
2015,08,19,06,36,13.70
2015,08,19,06,37,13.70
2015,08,19,06,38,13.70
2015,08,19,06,39,13.70
2015,08,19,06,41,13.70
2015,08,19,06,42,13.70
2015,08,19,06,43,13.70
2015,08,19,06,44,13.70
2015,08,19,06,46,13.70
2015,08,19,06,47,13.70
2015,08,19,06,48,13.70
2015,08,19,06,49,13.70
2015,08,19,06,50,13.70
2015,08,19,06,51,13.70
2015,08,19,06,52,13.70
2015,08,19,06,53,13.70
2015,08,19,06,54,13.70
2015,08,19,06,55,13.80
2015,08,19,06,56,13.80
2015,08,19,06,57,13.80
2015,08,19,06,58,13.80
2015,08,19,06,59,13.80
2015,08,19,07,00,13.90
2015,08,19,07,01,13.90
2015,08,19,07,02,14.00
2015,08,19,07,03,14.00
2015,08,19,07,04,14.10
2015,08,19,07,05,14.10
2015,08,19,07,06,14.10
2015,08,19,07,07,14.20
2015,08,19,07,08,14.20
2015,08,19,07,09,14.30
2015,08,19,07,10,14.30
2015,08,19,07,11,14.40
2015,08,19,07,12,14.40
2015,08,19,07,13,14.40
2015,08,19,07,14,14.50
2015,08,19,07,15,14.50
2015,08,19,07,16,14.50
2015,08,19,07,17,14.60
2015,08,19,07,18,14.60
2015,08,19,07,19,14.60
2015,08,19,07,20,14.60
2015,08,19,07,21,14.70
2015,08,19,07,22,14.70
2015,08,19,07,23,14.70
2015,08,19,07,24,14.70
2015,08,19,07,25,14.70
2015,08,19,07,26,14.70
2015,08,19,07,27,14.70
2015,08,19,07,28,14.70
2015,08,19,07,29,14.70
2015,08,19,07,30,14.80
2015,08,19,07,31,14.80
2015,08,19,07,32,14.80
2015,08,19,07,33,14.80
2015,08,19,07,34,14.80
2015,08,19,07,35,14.80
2015,08,19,07,36,14.80
2015,08,19,07,37,14.80
2015,08,19,07,38,14.80
2015,08,19,07,39,14.80
2015,08,19,07,41,14.80
2015,08,19,07,42,14.80
2015,08,19,07,43,14.80
2015,08,19,07,44,14.80
2015,08,19,07,46,14.80
2015,08,19,07,47,14.80
2015,08,19,07,48,14.80
2015,08,19,07,49,14.80
2015,08,19,07,51,14.80
2015,08,19,07,52,14.80
2015,08,19,07,53,14.80
2015,08,19,07,54,14.80
2015,08,19,07,56,14.80
2015,08,19,07,57,14.80
2015,08,19,07,58,14.80
2015,08,19,07,59,14.80
2015,08,19,08,01,14.90
2015,08,19,08,02,14.90
2015,08,19,08,03,14.90
2015,08,19,08,04,14.90
2015,08,19,08,06,14.90
2015,08,19,08,07,15.00
2015,08,19,08,08,15.00
2015,08,19,08,09,15.10
2015,08,19,08,11,15.30
2015,08,19,08,12,15.30
2015,08,19,08,13,15.40
2015,08,19,08,14,15.50
2015,08,19,08,16,15.70
2015,08,19,08,17,15.80
2015,08,19,08,18,15.80
2015,08,19,08,19,15.90
2015,08,19,08,21,16.10
2015,08,19,08,22,16.20
2015,08,19,08,23,16.40
2015,08,19,08,24,16.40
2015,08,19,08,26,16.70
2015,08,19,08,27,16.70
2015,08,19,08,28,16.80
2015,08,19,08,29,16.90
2015,08,19,08,31,17.00
2015,08,19,08,32,17.00
2015,08,19,08,33,17.00
2015,08,19,08,34,17.10
2015,08,19,08,36,17.20
2015,08,19,08,37,17.30
2015,08,19,08,38,17.30
2015,08,19,08,39,17.30
2015,08,19,08,41,17.30
2015,08,19,08,42,17.30
2015,08,19,08,43,17.30
2015,08,19,08,44,17.30
2015,08,19,08,46,17.50
2015,08,19,08,47,17.50
2015,08,19,08,48,17.60
2015,08,19,08,49,17.70
2015,08,19,08,51,17.90
2015,08,19,08,52,17.90
2015,08,19,08,53,18.10
2015,08,19,08,54,18.20
2015,08,19,08,56,18.30
2015,08,19,08,57,18.40
2015,08,19,08,58,18.50
2015,08,19,08,59,18.60
2015,08,19,09,01,18.80
2015,08,19,09,02,18.90
2015,08,19,09,03,18.90
2015,08,19,09,04,19.10
2015,08,19,09,06,19.10
2015,08,19,09,07,19.10
2015,08,19,09,08,19.20
2015,08,19,09,09,19.30
2015,08,19,09,11,19.40
2015,08,19,09,12,19.40
2015,08,19,09,13,19.30
2015,08,19,09,14,19.20
2015,08,19,09,16,19.10
2015,08,19,09,17,19.10
2015,08,19,09,18,19.10
2015,08,19,09,19,19.10
2015,08,19,09,21,18.90
2015,08,19,09,22,18.90
2015,08,19,09,23,18.90
2015,08,19,09,24,18.90
2015,08,19,09,26,19.10
2015,08,19,09,27,19.20
2015,08,19,09,28,19.30
2015,08,19,09,29,19.40
2015,08,19,09,31,19.50
2015,08,19,09,32,19.40
2015,08,19,09,33,19.40
2015,08,19,09,34,19.30
2015,08,19,09,36,19.30
2015,08,19,09,37,19.40
2015,08,19,09,38,19.40
2015,08,19,09,39,19.50
2015,08,19,09,41,19.80
2015,08,19,09,42,19.90
2015,08,19,09,43,19.90
2015,08,19,09,44,20.10
2015,08,19,09,46,20.20
2015,08,19,09,47,20.20
2015,08,19,09,48,20.30
2015,08,19,09,49,20.30
2015,08,19,09,51,20.40
2015,08,19,09,52,20.40
2015,08,19,09,53,20.50
2015,08,19,09,54,20.50
2015,08,19,09,55,20.50
2015,08,19,09,56,20.50
2015,08,19,09,57,20.40
2015,08,19,09,58,20.40
2015,08,19,09,59,20.30
2015,08,19,10,01,20.30
2015,08,19,10,02,20.20
2015,08,19,10,03,20.20
2015,08,19,10,04,20.20
2015,08,19,10,06,20.30
2015,08,19,10,07,20.30
2015,08,19,10,08,20.40
2015,08,19,10,09,20.50
2015,08,19,10,10,20.60
2015,08,19,10,11,20.60
2015,08,19,10,12,20.60
2015,08,19,10,13,20.60
2015,08,19,10,14,20.60
2015,08,19,10,15,20.60
2015,08,19,10,16,20.50
2015,08,19,10,17,20.50
2015,08,19,10,18,20.50
2015,08,19,10,19,20.60
2015,08,19,10,20,20.60
2015,08,19,10,21,20.70
2015,08,19,10,22,20.80
2015,08,19,10,23,20.90
2015,08,19,10,24,21.00
2015,08,19,10,25,21.10
2015,08,19,10,26,21.20
2015,08,19,10,27,21.30
2015,08,19,10,28,21.30
2015,08,19,10,29,21.30
2015,08,19,10,30,21.40
2015,08,19,10,31,21.60
2015,08,19,10,32,21.60
2015,08,19,10,33,21.60
2015,08,19,10,34,21.60
2015,08,19,10,35,21.60
2015,08,19,10,36,21.60
2015,08,19,10,37,21.60
2015,08,19,10,38,21.60
2015,08,19,10,39,21.60
2015,08,19,10,40,21.60
2015,08,19,10,41,21.60
2015,08,19,10,43,21.60
2015,08,19,10,44,21.40
2015,08,19,10,46,21.30
2015,08,19,10,47,21.30
2015,08,19,10,48,21.20
2015,08,19,10,49,21.20
2015,08,19,10,51,21.20
2015,08,19,10,52,21.20
2015,08,19,10,53,21.20
2015,08,19,10,54,21.20
2015,08,19,10,56,21.20
2015,08,19,10,57,21.20
2015,08,19,10,58,21.30
2015,08,19,10,59,21.30
2015,08,19,11,01,21.30
2015,08,19,11,02,21.30
2015,08,19,11,03,21.30
2015,08,19,11,04,21.30
2015,08,19,11,06,21.30
2015,08,19,11,07,21.40
2015,08,19,11,08,21.40
2015,08,19,11,09,21.40
2015,08,19,11,11,21.60
2015,08,19,11,12,21.40
2015,08,19,11,13,21.40
2015,08,19,11,14,21.30
2015,08,19,11,16,21.40
2015,08,19,11,17,21.40
2015,08,19,11,18,21.40
2015,08,19,11,19,21.40
2015,08,19,11,21,21.60
2015,08,19,11,22,21.60
2015,08,19,11,23,21.40
2015,08,19,11,24,21.40
2015,08,19,11,26,21.40
2015,08,19,11,27,21.60
2015,08,19,11,28,21.60
2015,08,19,11,29,21.60
2015,08,19,11,31,21.60
2015,08,19,11,32,21.60
2015,08,19,11,33,21.60
2015,08,19,11,34,21.60
2015,08,19,11,36,21.60
2015,08,19,11,37,21.60
2015,08,19,11,38,21.70
2015,08,19,11,39,21.60
2015,08,19,11,41,21.70
2015,08,19,11,42,21.70
2015,08,19,11,43,21.70
2015,08,19,11,44,21.70
2015,08,19,11,46,21.80
2015,08,19,11,47,21.90
2015,08,19,11,48,21.90
2015,08,19,11,49,22.00
2015,08,19,11,51,22.00
2015,08,19,11,52,22.10
2015,08,19,11,53,22.10
2015,08,19,11,54,22.10
2015,08,19,11,56,22.10
2015,08,19,11,57,22.10
2015,08,19,11,58,22.10
2015,08,19,11,59,22.00
2015,08,19,12,01,21.90
2015,08,19,12,02,21.90
2015,08,19,12,03,21.80
2015,08,19,12,04,21.70
2015,08,19,12,06,21.70
2015,08,19,12,07,21.70
2015,08,19,12,08,21.70
2015,08,19,12,09,21.70
2015,08,19,12,11,21.80
2015,08,19,12,12,21.80
2015,08,19,12,13,21.90
2015,08,19,12,14,21.90
2015,08,19,12,16,22.00
2015,08,19,12,17,21.90
2015,08,19,12,18,21.90
2015,08,19,12,19,22.00
2015,08,19,12,21,21.90
2015,08,19,12,22,21.90
2015,08,19,12,23,21.80
2015,08,19,12,24,21.80
2015,08,19,12,26,21.90
2015,08,19,12,27,21.90
2015,08,19,12,28,21.90
2015,08,19,12,29,22.00
2015,08,19,12,30,22.00
2015,08,19,12,31,22.00
2015,08,19,12,32,22.10
2015,08,19,12,33,22.10
2015,08,19,12,34,22.10
2015,08,19,12,35,22.10
2015,08,19,12,36,22.20
2015,08,19,12,37,22.20
2015,08,19,12,38,22.30
2015,08,19,12,39,22.40
2015,08,19,12,40,22.40
2015,08,19,12,41,22.40
2015,08,19,12,42,22.40
2015,08,19,12,43,22.50
2015,08,19,12,44,22.50
2015,08,19,12,45,22.50
2015,08,19,12,46,22.60
2015,08,19,12,47,22.60
2015,08,19,12,48,22.70
2015,08,19,12,49,22.70
2015,08,19,12,50,22.80
2015,08,19,12,51,22.80
2015,08,19,12,52,22.90
2015,08,19,12,53,22.90
2015,08,19,12,54,22.90
2015,08,19,12,55,22.90
2015,08,19,12,56,22.90
2015,08,19,12,57,22.90
2015,08,19,12,58,22.90
2015,08,19,12,59,22.90
2015,08,19,13,00,22.80
2015,08,19,13,01,22.70
2015,08,19,13,02,22.70
2015,08,19,13,03,22.60
2015,08,19,13,04,22.60
2015,08,19,13,05,22.70
2015,08,19,13,06,22.70
2015,08,19,13,07,22.70
2015,08,19,13,08,22.80
2015,08,19,13,09,22.80
2015,08,19,13,10,22.80
2015,08,19,13,11,22.80
2015,08,19,13,12,22.80
2015,08,19,13,13,22.80
2015,08,19,13,14,22.80
2015,08,19,13,15,22.80
2015,08,19,13,16,22.90
2015,08,19,13,18,22.90
2015,08,19,13,19,22.80
2015,08,19,13,21,22.80
2015,08,19,13,22,22.80
2015,08,19,13,23,22.80
2015,08,19,13,24,22.80
2015,08,19,13,26,22.80
2015,08,19,13,27,22.80
2015,08,19,13,28,22.80
2015,08,19,13,29,22.80
2015,08,19,13,31,22.90
2015,08,19,13,32,22.90
2015,08,19,13,33,22.90
2015,08,19,13,34,22.90
2015,08,19,13,36,22.90
2015,08,19,13,37,22.90
2015,08,19,13,38,22.90
2015,08,19,13,39,22.90
2015,08,19,13,41,22.80
2015,08,19,13,42,22.70
2015,08,19,13,43,22.70
2015,08,19,13,44,22.60
2015,08,19,13,46,22.60
2015,08,19,13,47,22.60
2015,08,19,13,48,22.50
2015,08,19,13,49,22.50
2015,08,19,13,51,22.50
2015,08,19,13,52,22.50
2015,08,19,13,53,22.50
2015,08,19,13,54,22.50
2015,08,19,13,56,22.30
2015,08,19,13,57,22.20
2015,08,19,13,58,22.10
2015,08,19,13,59,22.00
2015,08,19,14,01,21.80
2015,08,19,14,02,21.70
2015,08,19,14,03,21.70
2015,08,19,14,04,21.60
2015,08,19,14,06,21.60
2015,08,19,14,07,21.60
2015,08,19,14,08,21.60
2015,08,19,14,09,21.40
2015,08,19,14,11,21.40
2015,08,19,14,12,21.40
2015,08,19,14,13,21.40
2015,08,19,14,14,21.40
2015,08,19,14,16,21.60
2015,08,19,14,17,21.60
2015,08,19,14,18,21.60
2015,08,19,14,19,21.60
2015,08,19,14,21,21.40
2015,08,19,14,22,21.30
2015,08,19,14,23,21.30
2015,08,19,14,24,21.20
2015,08,19,14,26,21.10
2015,08,19,14,27,21.10
2015,08,19,14,28,21.10
2015,08,19,14,29,21.00
2015,08,19,14,31,21.00
2015,08,19,14,32,21.10
2015,08,19,14,33,21.10
2015,08,19,14,34,21.10
2015,08,19,14,36,21.20
2015,08,19,14,37,21.30
2015,08,19,14,38,21.30
2015,08,19,14,39,21.30
2015,08,19,14,41,21.30
2015,08,19,14,42,21.30
2015,08,19,14,43,21.40
2015,08,19,14,44,21.40
2015,08,19,14,46,21.60
2015,08,19,14,47,21.70
2015,08,19,14,48,21.80
2015,08,19,14,49,21.80
2015,08,19,14,51,22.00
2015,08,19,14,52,22.00
2015,08,19,14,53,22.10
2015,08,19,14,54,22.20
2015,08,19,14,56,22.30
2015,08,19,14,57,22.40
2015,08,19,14,58,22.40
2015,08,19,14,59,22.40
2015,08,19,15,01,22.50
2015,08,19,15,02,22.50
2015,08,19,15,03,22.50
2015,08,19,15,04,22.50
2015,08,19,15,06,22.50
2015,08,19,15,07,22.50
2015,08,19,15,08,22.50
2015,08,19,15,09,22.50
2015,08,19,15,11,22.50
2015,08,19,15,12,22.50
2015,08,19,15,13,22.40
2015,08,19,15,14,22.40
2015,08,19,15,16,22.20
2015,08,19,15,17,22.20
2015,08,19,15,18,22.10
2015,08,19,15,19,22.10
2015,08,19,15,21,21.90
2015,08,19,15,22,21.90
2015,08,19,15,23,21.80
2015,08,19,15,24,21.80
2015,08,19,15,25,21.70
2015,08,19,15,26,21.70
2015,08,19,15,27,21.60
2015,08,19,15,28,21.60
2015,08,19,15,29,21.40
2015,08,19,15,31,21.30
2015,08,19,15,32,21.30
2015,08,19,15,33,21.20
2015,08,19,15,34,21.00
2015,08,19,15,35,20.90
2015,08,19,15,36,20.80
2015,08,19,15,37,20.60
2015,08,19,15,38,20.50
2015,08,19,15,39,20.30
2015,08,19,15,40,20.20
2015,08,19,15,41,20.10
2015,08,19,15,42,19.90
2015,08,19,15,43,19.80
2015,08,19,15,44,19.70
2015,08,19,15,45,19.60
2015,08,19,15,46,19.50
2015,08,19,15,47,19.40
2015,08,19,15,48,19.40
2015,08,19,15,49,19.30
2015,08,19,15,50,19.30
2015,08,19,15,51,19.20
2015,08,19,15,52,19.10
2015,08,19,15,53,19.10
2015,08,19,15,54,19.10
2015,08,19,15,55,18.90
2015,08,19,15,56,18.90
2015,08,19,15,57,18.90
2015,08,19,15,58,18.80
2015,08,19,15,59,18.70
2015,08,19,16,00,18.70
2015,08,19,16,01,18.60
2015,08,19,16,02,18.60
2015,08,19,16,03,18.50
2015,08,19,16,04,18.40
2015,08,19,16,05,18.20
2015,08,19,16,06,18.20
2015,08,19,16,07,18.10
2015,08,19,16,08,18.10
2015,08,19,16,09,17.90
2015,08,19,16,11,17.90
2015,08,19,16,12,17.90
2015,08,19,16,13,17.80
2015,08,19,16,14,17.70
2015,08,19,16,16,17.50
2015,08,19,16,17,17.40
2015,08,19,16,18,17.40
2015,08,19,16,19,17.30
2015,08,19,16,21,17.30
2015,08,19,16,22,17.30
2015,08,19,16,23,17.30
2015,08,19,16,24,17.30
2015,08,19,16,26,17.40
2015,08,19,16,27,17.60
2015,08,19,16,28,17.70
2015,08,19,16,29,17.80
2015,08,19,16,31,17.90
2015,08,19,16,32,17.90
2015,08,19,16,33,18.20
2015,08,19,16,34,18.20
2015,08,19,16,36,18.70
2015,08,19,16,37,18.90
2015,08,19,16,38,19.20
2015,08,19,16,39,19.60
2015,08,19,16,41,20.50
2015,08,19,16,42,21.20
2015,08,19,16,43,21.70
2015,08,19,16,44,22.20
2015,08,19,16,46,23.20
2015,08,19,16,47,23.60
2015,08,19,16,48,23.90
2015,08,19,16,49,24.20
2015,08,19,16,51,24.70
2015,08,19,16,52,24.90
2015,08,19,16,53,25.10
2015,08,19,16,54,25.30
2015,08,19,16,56,25.50
2015,08,19,16,57,25.60
2015,08,19,16,58,25.70
2015,08,19,16,59,25.80
2015,08,19,17,01,25.80
2015,08,19,17,02,25.90
2015,08,19,17,03,25.90
2015,08,19,17,04,25.90
2015,08,19,17,06,25.90
2015,08,19,17,07,25.90
2015,08,19,17,08,25.90
2015,08,19,17,09,25.80
2015,08,19,17,11,25.80
2015,08,19,17,12,25.80
2015,08,19,17,13,25.80
2015,08,19,17,14,25.80
2015,08,19,17,16,25.80
2015,08,19,17,17,25.90
2015,08,19,17,18,25.90
2015,08,19,17,19,25.80
2015,08,19,17,21,25.90
2015,08,19,17,22,25.90
2015,08,19,17,23,25.90
2015,08,19,17,24,25.90
2015,08,19,17,26,25.90
2015,08,19,17,27,25.90
2015,08,19,17,28,26.00
2015,08,19,17,29,26.00
2015,08,19,17,31,25.90
2015,08,19,17,32,25.90
2015,08,19,17,33,25.90
2015,08,19,17,34,25.90
2015,08,19,17,36,25.90
2015,08,19,17,37,25.90
2015,08,19,17,38,25.90
2015,08,19,17,39,25.90
2015,08,19,17,41,25.90
2015,08,19,17,42,26.00
2015,08,19,17,43,26.00
2015,08,19,17,44,26.10
2015,08,19,17,46,26.20
2015,08,19,17,47,26.20
2015,08,19,17,48,26.20
2015,08,19,17,49,26.20
2015,08,19,17,51,26.10
2015,08,19,17,52,26.10
2015,08,19,17,53,26.10
2015,08,19,17,54,26.10
2015,08,19,17,55,26.10
2015,08,19,17,56,26.10
2015,08,19,17,57,26.10
2015,08,19,17,58,26.10
2015,08,19,17,59,26.00
2015,08,19,18,00,26.00
2015,08,19,18,01,26.00
2015,08,19,18,02,25.90
2015,08,19,18,03,25.90
2015,08,19,18,04,25.80
2015,08,19,18,05,25.80
2015,08,19,18,06,25.70
2015,08,19,18,07,25.70
2015,08,19,18,08,25.70
2015,08,19,18,09,25.70
2015,08,19,18,10,25.60
2015,08,19,18,11,25.60
2015,08,19,18,12,25.60
2015,08,19,18,13,25.60
2015,08,19,18,14,25.50
2015,08,19,18,15,25.40
2015,08,19,18,16,25.20
2015,08,19,18,17,25.10
2015,08,19,18,18,25.00
2015,08,19,18,19,24.80
2015,08,19,18,21,24.70
2015,08,19,18,22,24.70
2015,08,19,18,23,24.70
2015,08,19,18,24,24.70
2015,08,19,18,26,24.80
2015,08,19,18,27,24.90
2015,08,19,18,28,24.90
2015,08,19,18,29,25.00
2015,08,19,18,31,25.10
2015,08,19,18,32,25.20
2015,08,19,18,33,25.20
2015,08,19,18,34,25.20
2015,08,19,18,36,25.30
2015,08,19,18,37,25.30
2015,08,19,18,38,25.30
2015,08,19,18,39,25.40
2015,08,19,18,41,25.40
2015,08,19,18,42,25.50
2015,08,19,18,43,25.50
2015,08,19,18,44,25.50
2015,08,19,18,46,25.60
2015,08,19,18,47,25.60
2015,08,19,18,48,25.70
2015,08,19,18,49,25.70
2015,08,19,18,51,25.80
2015,08,19,18,52,25.80
2015,08,19,18,53,25.80
2015,08,19,18,54,25.80
2015,08,19,18,56,25.80
2015,08,19,18,57,25.80
2015,08,19,18,58,25.70
2015,08,19,18,59,25.70
2015,08,19,19,01,25.70
2015,08,19,19,02,25.70
2015,08,19,19,03,25.70
2015,08,19,19,04,25.70
2015,08,19,19,06,25.60
2015,08,19,19,07,25.40
2015,08,19,19,08,25.10
2015,08,19,19,09,24.80
2015,08,19,19,11,24.20
2015,08,19,19,12,23.80
2015,08,19,19,13,23.40
2015,08,19,19,14,23.20
2015,08,19,19,16,22.70
2015,08,19,19,17,22.40
2015,08,19,19,18,22.00
2015,08,19,19,19,21.60
2015,08,19,19,21,21.20
2015,08,19,19,22,21.10
2015,08,19,19,23,20.80
2015,08,19,19,24,20.60
2015,08,19,19,26,20.30
2015,08,19,19,27,20.20
2015,08,19,19,28,20.20
2015,08,19,19,29,20.10
2015,08,19,19,31,19.90
2015,08,19,19,32,19.90
2015,08,19,19,33,19.90
2015,08,19,19,34,20.10
2015,08,19,19,36,20.20
2015,08,19,19,37,20.20
2015,08,19,19,38,20.30
2015,08,19,19,39,20.50
2015,08,19,19,41,20.70
2015,08,19,19,42,20.80
2015,08,19,19,43,21.00
2015,08,19,19,44,21.10
2015,08,19,19,46,21.30
2015,08,19,19,47,21.30
2015,08,19,19,48,21.30
2015,08,19,19,49,21.40
2015,08,19,19,51,21.60
2015,08,19,19,52,21.60
2015,08,19,19,53,21.60
2015,08,19,19,54,21.60
2015,08,19,19,56,21.70
2015,08,19,19,57,21.70
2015,08,19,19,58,21.70
2015,08,19,19,59,21.70
2015,08,19,20,01,21.70
2015,08,19,20,02,21.70
2015,08,19,20,03,21.70
2015,08,19,20,04,21.70
2015,08,19,20,06,21.60
2015,08,19,20,07,21.60
2015,08,19,20,08,21.60
2015,08,19,20,09,21.60
2015,08,19,20,11,21.60
2015,08,19,20,12,21.60
2015,08,19,20,13,21.60
2015,08,19,20,14,21.60
2015,08,19,20,16,21.40
2015,08,19,20,17,21.40
2015,08,19,20,18,21.30
2015,08,19,20,19,21.30
2015,08,19,20,21,21.30
2015,08,19,20,22,21.30
2015,08,19,20,23,21.30
2015,08,19,20,24,21.30
2015,08,19,20,26,21.30
2015,08,19,20,27,21.20
2015,08,19,20,28,21.20
2015,08,19,20,29,21.20
2015,08,19,20,31,21.10
2015,08,19,20,32,21.10
2015,08,19,20,33,21.10